Location: Gipe Farm
(40.9466°N, 95.5370°W)
Time: 04:52:17
(UTC-06:00)

Daily predictions for brighter satellites

Satellite Brightness Start Highest point End
(mag) Time Altitude Azimuth Time Altitude Azimuth Time Altitude Azimuth
Cosmos 2237 Rocket 3.5 04:36:10 35° SE 04:36:10 35° SE 04:39:32 10° SE
SL-16 R/B 3.9 04:35:44 26° NE 04:36:58 28° NE 04:41:48 10° ESE
Cosmos 2297 Rocket 2.9 04:46:57 52° E 04:46:57 52° E 04:51:48 10° NNE
Cosmos 540 Rocket 4.1 04:58:35 52° ESE 04:58:35 52° ESE 05:02:47 10° SSE
Cosmos 2227 Rocket 3.0 05:00:40 41° NNE 05:00:40 41° NNE 05:04:17 10° NNE
OAO 2 Rocket 4.5 05:04:02 35° SE 05:04:02 35° SE 05:07:36 10° ESE
ISS -0.1 05:06:00 14° ENE 05:06:00 14° ENE 05:06:36 10° E
Cosmos 1725 Rocket 4.0 05:00:29 10° S 05:06:42 80° E 05:13:01 10° N
Cosmos 1864 Rocket 4.4 05:01:06 10° S 05:07:12 79° E 05:13:22 10° N
Meteor 1-21 Rocket 4.3 05:10:32 68° S 05:10:32 68° S 05:15:19 10° S
Cosmos 1980 4.4 05:22:40 38° SSW 05:22:40 38° SSW 05:26:20 10° S
USA 234 4.2 05:18:14 10° E 05:24:13 39° NNE 05:27:25 25° NNW
Cosmos 2082 3.9 05:27:37 54° NNW 05:27:37 54° NNW 05:32:32 10° NNE
Cosmos 2333 Rocket 3.5 05:32:19 24° SSW 05:32:19 24° SSW 05:34:54 10° S
Ariane Rocket 4.0 05:29:52 10° NNE 05:34:47 46° E 05:39:40 10° S
Cosmos 1743 Rocket 3.4 05:46:44 61° NW 05:47:14 67° W 05:51:35 10° S
Cosmos 1328 4.0 05:45:28 25° N 05:47:41 70° E 05:51:40 10° SSE
DMSP B5D1-3 4.5 05:43:03 10° SSE 05:48:11 84° ENE 05:53:20 10° NNW
Cosmos 2058 4.0 05:49:14 10° N 05:53:12 44° ENE 05:57:09 10° SSE
Cosmos 1842 Rocket 3.4 05:52:11 10° SSW 05:56:29 70° W 06:00:51 10° N
COSMO-SKYMED 1 2.5 05:52:46 10° S 05:57:02 58° W 05:58:24 39° NW
Cosmos 2233 Rocket 3.9 05:51:05 10° SSW 05:57:16 68° W 06:03:33 10° N
CZ-2C R/B 4.1 06:00:16 10° NNE 06:04:26 33° E 06:08:31 10° SSE
NOAA 6 4.3 06:02:02 10° N 06:06:55 42° WNW 06:11:46 10° SW
SeaSat 1 4.4 06:03:52 10° N 06:04:58 14° NNW 06:04:58 14° NNW
Cosmos 968 Rocket 3.4 06:02:27 10° SSW 06:07:41 69° WNW 06:12:58 10° NNE
Cosmos 2151 2.8 06:06:39 10° N 06:10:53 81° W 06:15:06 10° S
CSL-04 Rocket 3.6 06:05:36 10° NNE 06:10:56 83° ESE 06:16:13 10° SSW
Genesis I 4.5 06:08:32 15° NNW 06:11:24 38° NE 06:15:04 10° ESE
Cosmos 1500 Rocket 3.8 06:11:48 19° NNW 06:14:40 46° W 06:18:55 10° SSW
Cosmos 773 Rocket 4.3 06:11:29 10° NNW 06:16:46 70° ENE 06:22:03 10° SSE
Cosmos 2237 Rocket 3.6 06:18:05 19° WSW 06:18:05 19° WSW 06:21:23 10° SW
Cosmos 1703 4.1 06:15:54 10° N 06:19:44 50° E 06:23:33 10° SSE
SL-16 R/B 2.5 06:17:39 20° NW 06:21:13 43° WSW 06:26:31 10° S
USA 229 DEB 4.2 06:21:03 19° NW 06:25:42 41° WSW 06:32:23 10° S
USA 229 4.2 06:21:07 19° NW 06:25:49 42° WSW 06:32:30 10° S
Cosmos 1340 Rocket 2.7 06:25:48 10° NNW 06:29:43 70° W 06:33:38 10° S
Cosmos 2297 Rocket 3.3 06:28:51 20° W 06:30:40 23° NW 06:35:07 10° N
Aureole 2 Rocket 4.2 06:31:12 21° W 06:31:36 21° W 06:34:45 10° SSW
Meteor 1-11 4.3 06:28:07 10° NNW 06:33:50 60° W 06:39:31 10° S
Sich 1 4.0 06:29:57 10° N 06:34:12 49° E 06:38:23 10° SSE
Cosmos 1633 Rocket 4.3 06:30:49 10° N 06:35:00 44° ENE 06:39:08 10° SSE
SJ-12 4.0 06:31:38 10° NNE 06:35:45 80° ESE 06:39:48 10° S
Cosmos 1777 Rocket 3.9 06:32:50 10° SSW 06:38:02 70° WNW 06:43:15 10° NNE
Cosmos 1271 Rocket 3.0 06:34:54 10° SSW 06:38:34 43° WNW 06:42:13 10° N
Cosmos 1184 Rocket 3.7 06:36:19 10° N 06:39:34 51° E 06:42:47 10° SSE
NOSS 3-1 (A) 4.2 06:32:04 10° NW 06:39:44 86° NE 06:48:10 10° SE
ISS -3.1 06:38:40 21° WNW 06:40:33 54° SW 06:43:44 10° SE
SL-14 R/B 4.0 06:38:45 10° NNW 06:42:24 32° W 06:46:01 10° SSW
Meteor 1-28 Rocket 4.3 06:40:08 10° SSW 06:43:12 24° W 06:45:39 13° NW
Cosmos 2227 Rocket 3.7 06:42:32 14° WNW 06:43:30 15° NW 06:46:39 10° NNW
Meteor 1-16 Rocket 4.5 06:38:56 10° SW 06:44:01 40° WNW 06:49:02 10° N
IRS-1A Rocket 4.3 06:38:55 10° NNE 06:44:49 77° WNW 06:50:38 10° SSW
IDEFIX/ARIANE 42P 2.6 06:39:57 10° NNE 06:45:15 87° ESE 06:50:32 10° SSW
Cosmos 1464 Rocket 4.0 06:40:02 10° SSW 06:46:18 62° W 06:52:33 10° N
Meteor 1-4 Rocket 4.0 06:44:28 10° WSW 06:47:05 18° WNW 06:49:44 10° NNW
OAO 2 Rocket 4.3 06:43:00 11° WSW 06:47:21 37° S 06:51:53 10° ESE
ATLAS 2AS CENTAUR R/B 4.2 06:40:54 10° NNW 06:48:22 38° NE 06:55:26 10° ESE
Cosmos 1484 Rocket 4.4 06:45:04 10° NNE 06:48:55 41° E 06:52:41 10° S
CZ-3 Stage 3 4.1 06:45:09 10° WSW 06:50:00 36° S 07:08:41 10° ESE
YAOGAN 1 2.7 06:47:45 10° NNE 06:52:06 81° ESE 06:56:26 10° S
CZ-4 R/B 1.4 06:51:52 10° N 06:55:50 59° WNW 06:59:52 10° SSW
ERBS 2.5 06:57:17 11° NW 07:00:29 57° SW 07:03:49 10° SSE
Cosmos 1626 2.2 06:58:33 10° NNW 07:02:14 59° W 07:05:54 10° S
Meteor 1-29 3.2 07:01:15 10° SSE 07:04:43 75° ENE 07:08:14 10° N
Cosmos 1943 3.5 06:59:26 10° NNW 07:05:10 74° ENE 07:10:50 10° SSE
Cosmos 1666 Rocket 3.6 07:00:48 10° NNW 07:05:15 68° W 07:09:40 10° S
Coronas F rocket 0.9 07:04:09 10° N 07:06:34 87° W 07:08:57 10° S
PSLV R/B 3.6 07:03:34 10° WSW 07:06:56 66° SSE 07:10:15 10° E
USA 234 3.4 07:00:23 10° SE 07:06:56 74° SW 07:13:30 10° NW
Cosmos 923 Rocket 4.1 07:04:55 10° NNW 07:10:02 57° WSW 07:15:09 10° S
Cosmos 2221 3.5 07:09:39 10° SW 07:13:20 26° WNW 07:17:00 10° NNW
Ariane Rocket 4.1 07:09:33 10° NNW 07:13:24 22° WNW 07:17:15 10° WSW
